Flag for Guadeloupe Weather past 2 weeks in Basse-Terre, Guadeloupe

Now
79 °F

Passing clouds.


Feels Like: 82 °F
Forecast: 76 / 84 °F
Wind: 6 mph from East

Location: Le Raizet - Guadeloupe

Current Time: Jul 31, 2015 at 4:17:11 AM

Latest Report: Jul 31, 2015 at 4:00 AM


Visibility: N/A

Pressure: 29.98 "Hg

Humidity: 89%

Dew point: 75 °F

Location of Basse-TerreLocation

Historic Weather in Basse-Terre — Graph

°F

Basse-Terre temperature yesterday

Maximum temperature yesterday: 90 °F (at 11:00 AM)
Minimum temperature yesterday: 79 °F (at 1:30 AM)
Average temperature yesterday: 83 °F

Past Weeks' High & Low Weather Summary

 TemperatureHumidityPressure
High90 °F (Jul 19, 12:30 PM)100% (Jul 17, 5:30 AM)30.09 "Hg (Jul 17, 5:30 AM)
Low72 °F (Jul 18, 5:00 AM)40% (Jul 19, 11:30 AM)29.95 "Hg (Jul 20, 5:00 PM)
Average82 °F73%30.02 "Hg
* Reported Jul 16 3:00 AM — Jul 31 3:00 AM, Basse-Terre, Weather by CustomWeather, © 2015

Note: Actual official high and low records may vary slightly from our data, if they occured in-between our weather recording intervals... More about our weather records

Advertising

Basse-Terre weather history for previous 24 hours

 ConditionsComfort  
Time TempWeatherWind HumidityBarometerVisibility
3:00 AM
Fri, Jul 31
81 °FPassing clouds.8 mph84%29.98 "HgN/A
2:30 AM81 °FPassing clouds.7 mph84%29.98 "HgN/A
2:00 AM81 °FPartly cloudy.7 mph79%30.01 "HgN/A
1:30 AM81 °FOvercast.7 mph84%30.01 "HgN/A
1:00 AM81 °FOvercast.7 mph84%30.01 "HgN/A
12:30 AM81 °FOvercast.6 mph84%30.04 "HgN/A
12:00 AM81 °FPartly cloudy.7 mph84%30.04 "HgN/A
11:30 PM
Thu, Jul 30
81 °FClear.8 mph84%30.04 "HgN/A
11:00 PM81 °FPassing clouds.7 mph79%30.04 "HgN/A
10:30 PM81 °FClear.8 mph79%30.04 "HgN/A
10:00 PM81 °FClear.7 mph79%30.04 "HgN/A
9:30 PM81 °FClear.7 mph79%30.04 "HgN/A
9:00 PM81 °FPassing clouds.8 mph79%30.04 "HgN/A
8:30 PM81 °FClear.8 mph79%30.04 "HgN/A
8:00 PM82 °FClear.8 mph70%30.01 "HgN/A
7:30 PM82 °FClear.8 mph70%30.01 "HgN/A
7:00 PM82 °FClear.8 mph74%30.01 "HgN/A
6:00 PM82 °FPartly sunny.12 mph74%29.98 "HgN/A
5:30 PM82 °FPartly sunny.14 mph74%29.98 "HgN/A
5:00 PM84 °FPartly sunny.13 mph70%29.98 "HgN/A
4:30 PM86 °FPartly sunny.14 mph59%29.98 "HgN/A
4:00 PM88 °FPartly sunny.12 mph55%29.98 "HgN/A
3:30 PM88 °FBroken clouds.12 mph55%29.98 "HgN/A
3:00 PM88 °FPartly sunny.14 mph59%29.98 "HgN/A
2:30 PM90 °FPartly sunny.15 mph49%29.98 "HgN/A
2:00 PM88 °FPartly sunny.17 mph55%30.01 "HgN/A
1:30 PM90 °FPartly sunny.15 mph52%30.01 "HgN/A
1:00 PM90 °FPartly sunny.16 mph55%30.01 "HgN/A
12:30 PM90 °FPartly sunny.15 mph52%30.01 "HgN/A
12:00 PM90 °FPartly sunny.16 mph49%30.04 "HgN/A
11:30 AM88 °FPartly sunny.13 mph59%30.04 "HgN/A
11:00 AM90 °FPartly sunny.12 mph55%30.04 "HgN/A
10:30 AM88 °FScattered clouds.13 mph55%30.04 "HgN/A
10:00 AM88 °FPartly sunny.14 mph55%30.04 "HgN/A
9:30 AM86 °FPartly sunny.12 mph62%30.04 "HgN/A
9:00 AM86 °FBroken clouds.13 mph62%30.04 "HgN/A
8:30 AM84 °FPartly sunny.14 mph66%30.04 "HgN/A
8:00 AM82 °FPartly sunny.12 mph74%30.04 "HgN/A
7:30 AM82 °FClear.9 mph74%30.01 "HgN/A
7:00 AM81 °FClear.9 mph79%30.01 "HgN/A
6:30 AM79 °FClear.6 mph84%30.01 "HgN/A
6:00 AM79 °FClear.5 mph84%30.01 "HgN/A
5:30 AM79 °FMostly cloudy.6 mph84%30.01 "HgN/A
5:00 AM79 °FPartly cloudy.7 mph84%29.98 "HgN/A
4:30 AM79 °FOvercast.5 mph84%29.98 "HgN/A
4:00 AM79 °FOvercast.5 mph84%29.98 "HgN/A
Weather by CustomWeather, © 2015

See weather overviewHow to use our weather pages